Location: Emory University Observatory
(33.7903°N, 84.3267°W)
Time: 01:58:47
(UTC-04:00)

Vanguard 1 - All Passes

Search period start: 21 July 2018 00:00
Search period end: 31 July 2018 00:00
Orbit: 650 x 3833 km, 34.2° (Epoch: 20 July)

Date Brightness Start Highest point End Pass type
(mag) Time Alt. Az. Time Alt. Az. Time Alt. Az.
21 Jul - 02:05:43 10° W 02:10:31 84° N 02:15:03 10° E night (unlit)
21 Jul - 04:26:05 10° W 04:30:25 51° SSW 04:36:18 10° ESE visible
21 Jul - 06:47:12 10° WSW 06:51:01 17° SSW 06:56:02 10° SSE daylight
21 Jul - 21:42:30 10° SSW 21:50:51 31° SSE 21:56:08 10° E visible
22 Jul - 00:04:48 10° WSW 00:11:26 74° SSE 00:16:00 10° E visible
22 Jul - 02:26:48 10° W 02:31:28 89° NNE 02:36:05 10° E visible
22 Jul - 04:47:08 10° W 04:51:21 37° SSW 04:57:02 10° SE visible
22 Jul - 07:10:47 10° SW 07:12:12 11° SSW 07:13:44 10° SSW daylight
22 Jul - 19:43:30 10° S 19:49:59 15° SSE 19:54:55 10° ESE daylight
22 Jul - 22:03:00 10° SW 22:11:55 41° SSE 22:17:20 10° E visible
23 Jul - 00:26:01 10° W 00:32:23 87° S 00:36:54 10° E visible
23 Jul - 02:47:50 10° W 02:52:24 79° SSW 02:57:06 10° ESE visible
23 Jul - 05:08:23 10° W 05:12:18 26° SSW 05:17:27 10° SSE visible
23 Jul - 20:02:13 10° SSW 20:11:18 22° SSE 20:17:27 10° ESE daylight
23 Jul - 22:23:51 10° SW 22:32:58 53° SSE 22:38:21 10° E visible
24 Jul - 00:47:17 10° W 00:53:22 86° N 00:57:49 10° E visible
24 Jul - 03:08:52 10° W 03:13:17 61° SSW 03:18:03 10° ESE visible
24 Jul - 05:30:02 10° WSW 05:33:17 17° SSW 05:37:18 10° SSE visible
24 Jul - 20:21:55 10° SSW 20:32:35 30° SSE 20:39:11 10° E daylight
24 Jul - 22:44:58 10° WSW 22:53:59 66° SSE 22:59:17 10° E visible
25 Jul - 01:08:32 10° W 01:14:20 85° N 01:18:45 10° E visible
25 Jul - 03:29:56 10° W 03:34:10 44° SSW 03:38:50 10° SE visible
25 Jul - 05:53:05 10° SW 05:54:18 11° SSW 05:55:35 10° SSW visible
25 Jul - 18:23:18 10° S 18:30:52 15° SSE 18:36:46 10° ESE daylight
25 Jul - 20:42:13 10° SW 20:53:48 39° SSE 21:00:31 10° E daylight
25 Jul - 23:06:16 10° WSW 23:14:59 79° S 23:20:10 10° E visible
26 Jul - 01:29:45 10° W 01:35:18 89° S 01:39:42 10° E visible
26 Jul - 03:51:07 10° W 03:55:00 30° SSW 03:59:22 10° SE visible
26 Jul - 18:41:23 10° SSW 18:52:18 22° SSE 18:59:51 10° ESE daylight
26 Jul - 21:02:56 10° SW 21:14:58 50° SSE 21:21:37 10° E visible
26 Jul - 23:27:40 10° W 23:35:59 89° S 23:41:02 10° E visible
27 Jul - 01:50:55 10° W 01:56:14 76° SSW 02:00:36 10° ESE visible
27 Jul - 04:12:35 10° WSW 04:15:51 20° SSW 04:19:29 10° SSE visible
27 Jul - 19:00:41 10° SSW 19:13:42 29° SSE 19:21:54 10° E daylight
27 Jul - 21:24:00 10° WSW 21:36:04 61° SSE 21:42:36 10° E visible
27 Jul - 23:49:08 10° W 23:57:01 86° N 00:01:54 10° E visible
28 Jul - 02:12:04 10° W 02:17:06 58° SSW 02:21:25 10° ESE night (unlit)
28 Jul - 04:34:50 10° SW 04:36:42 12° SSW 04:38:42 10° S visible
28 Jul - 17:03:29 10° S 17:11:05 14° SE 17:17:22 10° ESE daylight
28 Jul - 19:20:41 10° SSW 19:35:01 37° SSE 19:43:26 10° E daylight
28 Jul - 21:45:19 10° WSW 21:57:09 73° SSE 22:03:30 10° E visible
29 Jul - 00:10:33 10° W 00:18:01 86° N 00:22:48 10° E visible
29 Jul - 02:33:17 10° W 02:37:55 40° SSW 02:42:05 10° SE night (unlit)
29 Jul - 17:20:32 10° S 17:32:37 20° SSE 17:41:28 10° ESE daylight
29 Jul - 19:41:11 10° SW 19:56:16 47° SSE 20:04:41 10° E daylight
29 Jul - 22:06:49 10° WSW 22:18:13 83° SSE 22:24:22 10° E visible
30 Jul - 00:31:56 10° W 00:39:01 87° S 00:43:41 10° E visible
30 Jul - 02:54:37 10° W 02:58:40 27° SSW 03:02:27 10° SSE night (unlit)
30 Jul - 17:39:16 10° SSW 17:54:03 27° SSE 18:04:00 10° E daylight
30 Jul - 20:02:05 10° SW 20:17:29 57° SSE 20:25:45 10° E daylight
30 Jul - 22:28:25 10° W 22:39:18 90° N 22:45:15 10° E visible
